Flag for Spain Weather past 2 weeks in Madrid, Spain

Now
59 °F

Sunny.


Feels Like: 59 °F
Forecast: 35 / 55 °F
Wind: No wind

Location: Madrid / Cuatro Vientos

Current Time: Dec 18, 2014 at 1:49:18 PM

Latest Report: Dec 18, 2014 at 1:00 PM


Visibility: 10 mi

Pressure: 30.36 "Hg

Humidity: 55%

Dew point: 43 °F

Location of MadridLocation

Historic Weather in Madrid — Graph

°F

Madrid temperature yesterday

Maximum temperature yesterday: 59 °F (at 2:30 PM)
Minimum temperature yesterday: 37 °F (at 8:30 AM)
Average temperature yesterday: 50 °F

Past Weeks' High & Low Weather Summary

 TemperatureHumidityPressure
High61 °F (Dec 16, 2:00 PM)100% (Dec 6, 8:30 AM)30.48 "Hg (Dec 6, 8:30 AM)
Low30 °F (Dec 6, 8:30 AM)36% (Dec 9, 3:00 PM)29.80 "Hg (Dec 3, 2:30 PM)
Average47 °F71%30.17 "Hg
* Reported Dec 3 12:00 Noon — Dec 18 12:30 PM, Madrid, Weather by CustomWeather, © 2014

Note: Actual official high and low records may vary slightly from our data, if they occured in-between our weather recording intervals... More about our weather records

Advertising

Madrid weather history for previous 24 hours

 ConditionsComfort  
Time TempWeatherWind HumidityBarometerVisibility
12:30 PM
Dec 18
57 °FSunny.No wind63%30.39 "Hg10 mi
12:00 PM55 °FSunny.No wind63%30.39 "Hg10 mi
11:30 AM55 °FSunny.No wind63%30.39 "Hg10 mi
11:00 AM52 °FSunny.No wind72%30.39 "Hg10 mi
10:30 AM48 °FSunny.No wind82%30.39 "Hg10 mi
10:00 AM45 °FSunny.2 mph100%30.39 "Hg10 mi
9:30 AM41 °FSunny.1 mph100%30.39 "Hg10 mi
9:00 AM37 °FFog.No wind100%30.39 "Hg5 mi
8:30 AM36 °FFog.No wind100%30.36 "Hg5 mi
8:00 AM36 °FClear.No wind100%30.36 "Hg10 mi
7:30 AM36 °FClear.No wind100%30.36 "Hg10 mi
7:00 AM36 °FClear.No wind100%30.33 "Hg10 mi
8:00 PM
Dec 17
46 °FClear.1 mph87%30.30 "Hg10 mi
7:30 PM46 °FClear.2 mph87%30.30 "Hg10 mi
7:00 PM48 °FClear.5 mph87%30.27 "Hg10 mi
6:30 PM50 °FClear.3 mph82%30.27 "Hg10 mi
6:00 PM52 °FClear.2 mph82%30.27 "Hg10 mi
5:30 PM52 °FSunny.3 mph82%30.27 "Hg10 mi
5:00 PM54 °FSunny.5 mph77%30.27 "Hg10 mi
4:30 PM57 °FSunny.3 mph67%30.27 "Hg10 mi
4:00 PM59 °FPassing clouds.3 mph59%30.27 "HgN/A
3:30 PM57 °FPassing clouds.5 mph67%30.24 "HgN/A
3:00 PM57 °FPassing clouds.5 mph63%30.24 "HgN/A
2:30 PM59 °FPassing clouds.3 mph59%30.24 "HgN/A
2:00 PM57 °FSunny.2 mph59%30.27 "Hg10 mi
1:30 PM55 °FPassing clouds.3 mph59%30.27 "HgN/A
1:00 PM55 °FSunny.2 mph59%30.30 "Hg10 mi
Weather by CustomWeather, © 2014

See weather overviewHow to use our weather pages